Location: Bogis-Bossey
(46.3500°N, 6.1667°E)
Time: 17:28:47
(UTC+00:00)

Cosmos 1315 Rocket - Pass Details

Date: 17 August 2022
Orbit: 526 x 564 km, 81.2° (Epoch: 01 October)

Event Time Altitude Azimuth Distance (km) Brightness Sun altitude
Exits shadow 21:12:54 41° 223° (SW) 799 3.5 -22.0°
Maximum altitude 21:14:04 61° 283° (WNW) 623 3.2 -22.1°
Drops below altitude 10° 21:18:03 10° 4° (N) 1,831 6.1 -22.5°
Sets 21:20:16 0° 8° (N) 2,737 7.0 -22.8°
